Tracking 25195 objects as of 20-Jan-2022
HD Live streaming from Space Station
objects crossing your sky now

KYOKKO 1 (EXOS A)

Track KYOKKO 1 (EXOS A) now!
10-day predictions
KYOKKO 1 (EXOS A) is classified as:


NORAD ID: 10664
Int'l Code: 1978-014A
Perigee: 652.6 km
Apogee: 3,944.3 km
Inclination: 65.4 °
Period: 133.9 minutes
Semi major axis: 8669 km
RCS: 1.0778 m2 (large)
Launch date: February 4, 1978
Source: Japan (JPN)
Launch site: KAGOSHIMA SPACE CENTER UNIVERSITY OF TOKYO (KSCUT)
aabbcc
Your satellite tracking list
Your tracking list is empty




NASA's NSSDC Master Catalog

Two Line Element Set (TLE):
1 10664U 78014A   22020.03033193 -.00000011  00000-0  33255-4 0  9990
2 10664  65.3679 223.7338 1898461  44.8670 329.0881 10.75513668725062
Source of the keplerian elements: AFSPC